Change the Weather History Date:

Saturday, March 24, 2012

  Actual Average Record
Temperature  
Mean Temperature 57 °F 42 °F  
Max Temperature 67 °F 53 °F 73 °F (1959)
Min Temperature 47 °F 31 °F 3 °F (1974)
Degree Days  
Heating Degree Days 8 23  
Month to date heating degree days 330 682  
Since 1 July heating degree days 4705 5707  
Cooling Degree Days 0 0  
Month to date cooling degree days 37 0  
Year to date cooling degree days 37 0  
Growing Degree Days 7 (Base 50)    
Moisture  
Dew Point 53 °F    
Average Humidity 78    
Maximum Humidity 93    
Minimum Humidity 63    
Precipitation  
Precipitation 0.02 in 0.08 in 0.96 in (2009)
Month to date precipitation 1.01 1.92  
Year to date precipitation 3.62 4.45  
Snow  
Snow 0.00 in - - ()
Month to date snowfall 2.1  
Since 1 July snowfall 21.2  
Snow Depth 0.00 in    
Sea Level Pressure  
Sea Level Pressure 29.89 in    
Wind  
Wind Speed 5 mph (NNE)    
Max Wind Speed 10 mph    
Max Gust Speed 13 mph    
Visibility 5 miles    
Events Fog , Rain    
T = Trace of Precipitation, MM = Missing Value Source: NWS Daily Summary

Daily Weather History Graph

Daily Weather History Graph

Search for Another Location

Airport or City:

Trip Planner

Search our weather history database for the weather conditions in past years. The results will help you decide how hot, cold, wet, or windy it might be!

Date:

Astronomy

Mar. 24, 2012 Rise Set
Actual Time 6:58 AM CDT 7:19 PM CDT
Civil Twilight 6:30 AM CDT 7:47 PM CDT
Nautical Twilight 5:57 AM CDT 8:20 PM CDT
Astronomical Twilight 5:24 AM CDT 8:53 PM CDT
Moon 7:34 AM CDT (3/24) 9:41 PM CDT (3/24)
Length of Visible Light 13h 17m
Length of Day
12h 21m
Waxing Crescent, 4% of the Moon is Illuminated
Mar 24
Waxing Crescent
Mar 30
First Quarter
Apr 6
Full
Apr 13
Last Quarter
Apr 21
New

Hourly Weather History & Observations

Time (CDT) Temp. Dew Point Humidity Pressure Visibility Wind Dir Wind Speed Gust Speed Precip Events Conditions
12:52 AM 52.0 °F 46.9 °F 83% 29.81 in 9.0 mi NNW 8.1 mph - N/A   Clear
1:52 AM 48.9 °F 45.0 °F 86% 29.82 in 7.0 mi North 5.8 mph - N/A   Clear
2:50 AM 50.0 °F 46.4 °F 87% 29.81 in 6.0 mi NNW 6.9 mph - N/A   Scattered Clouds
2:52 AM 50.0 °F 46.0 °F 86% 29.82 in 5.0 mi NNW 5.8 mph - N/A   Mostly Cloudy
3:37 AM 51.8 °F 48.2 °F 88% 29.82 in 2.0 mi North 5.8 mph - N/A   Overcast
3:41 AM 51.8 °F 48.2 °F 88% 29.82 in 0.8 mi North 5.8 mph - N/A   Mist
3:52 AM 53.1 °F 50.0 °F 89% 29.81 in 0.2 mi NNE 8.1 mph - N/A Fog Fog
4:52 AM 54.0 °F 52.0 °F 93% 29.80 in 0.2 mi North 8.1 mph - N/A Fog Fog
5:52 AM 54.0 °F 52.0 °F 93% 29.84 in 0.2 mi NNE 5.8 mph - N/A Fog Fog
6:42 AM 53.6 °F 51.8 °F 94% 29.85 in 0.5 mi NNE 6.9 mph - 0.01 in Fog Fog
6:52 AM 55.0 °F 52.0 °F 89% 29.86 in 0.5 mi North 9.2 mph - 0.01 in Fog Fog
7:25 AM 55.4 °F 53.6 °F 94% 29.86 in 0.2 mi ENE 4.6 mph - N/A Fog Fog
7:44 AM 55.4 °F 53.6 °F 94% 29.86 in 0.2 mi NNE 3.5 mph - N/A Fog Fog
7:52 AM 55.0 °F 53.1 °F 93% 29.86 in 0.2 mi NE 4.6 mph - N/A Fog Fog
8:14 AM 55.4 °F 53.6 °F 94% 29.86 in 0.2 mi NNE 3.5 mph - N/A Fog Fog
8:27 AM 55.4 °F 53.6 °F 94% 29.87 in 0.8 mi NNE 6.9 mph - N/A   Overcast
8:35 AM 55.4 °F 53.6 °F 94% 29.88 in 1.0 mi NE 8.1 mph - N/A   Overcast
8:52 AM 55.9 °F 53.1 °F 90% 29.88 in 1.2 mi ENE 8.1 mph - N/A   Overcast
9:02 AM 55.4 °F 53.6 °F 94% 29.88 in 0.8 mi ENE 6.9 mph - N/A   Overcast
9:26 AM 55.4 °F 53.6 °F 94% 29.89 in 1.2 mi ENE 4.6 mph - N/A   Overcast
9:52 AM 55.9 °F 54.0 °F 93% 29.90 in 1.2 mi ENE 5.8 mph - N/A   Overcast
10:11 AM 57.2 °F 55.4 °F 94% 29.88 in 2.5 mi ENE 5.8 mph - N/A   Overcast
10:18 AM 57.2 °F 53.6 °F 88% 29.90 in 3.0 mi East 4.6 mph - N/A   Overcast
10:25 AM 55.4 °F 53.6 °F 94% 29.90 in 2.5 mi Calm Calm - N/A   Overcast
10:34 AM 57.2 °F 53.6 °F 88% 29.88 in 4.0 mi NE 3.5 mph - N/A   Overcast
10:52 AM 59.0 °F 54.0 °F 83% 29.91 in 4.0 mi NW 3.5 mph - N/A   Haze
11:25 AM 59.0 °F 53.6 °F 82% 29.91 in 5.0 mi NNW 5.8 mph - N/A   Haze
11:52 AM 61.0 °F 54.0 °F 78% 29.91 in 6.0 mi Calm Calm - N/A   Haze
12:12 PM 60.8 °F 53.6 °F 77% 29.91 in 6.0 mi Calm Calm - N/A   Haze
12:52 PM 62.1 °F 54.0 °F 75% 29.91 in 5.0 mi NW 3.5 mph - N/A   Haze
1:28 PM 64.4 °F 55.4 °F 73% 29.90 in 7.0 mi North 5.8 mph - N/A   Overcast
1:52 PM 64.9 °F 55.0 °F 70% 29.89 in 7.0 mi Calm Calm - N/A   Overcast
2:52 PM 66.9 °F 53.1 °F 61% 29.89 in 10.0 mi Calm Calm - N/A   Overcast
3:09 PM 66.2 °F 51.8 °F 60% 29.89 in 10.0 mi Calm Calm - N/A   Overcast
3:34 PM 62.6 °F 55.4 °F 77% 29.91 in 2.0 mi North 9.2 mph - 0.01 in Rain Light Rain
3:45 PM 62.6 °F 55.4 °F 77% 29.91 in 3.0 mi North 9.2 mph - 0.02 in Rain Light Rain
3:52 PM 62.1 °F 57.0 °F 84% 29.92 in 5.0 mi NNE 8.1 mph - 0.02 in Rain Light Rain
4:43 PM 64.4 °F 57.2 °F 77% 29.92 in 8.0 mi North 4.6 mph - 0.00 in   Overcast
4:52 PM 64.0 °F 57.9 °F 80% 29.91 in 9.0 mi North 5.8 mph - 0.00 in   Overcast
5:52 PM 64.0 °F 55.9 °F 75% 29.91 in 8.0 mi North 4.6 mph - N/A   Clear
6:12 PM 66.2 °F 57.2 °F 73% 29.91 in 10.0 mi NNW 8.1 mph - N/A   Mostly Cloudy
6:41 PM 64.4 °F 55.4 °F 73% 29.92 in 10.0 mi North 12.7 mph - N/A   Overcast
6:52 PM 64.0 °F 55.0 °F 73% 29.92 in 10.0 mi North 9.2 mph - N/A   Scattered Clouds
7:52 PM 60.1 °F 53.1 °F 78% 29.93 in 10.0 mi North 6.9 mph - N/A   Mostly Cloudy
8:52 PM 57.0 °F 52.0 °F 83% 29.95 in 10.0 mi Calm Calm - N/A   Clear
9:52 PM 57.0 °F 52.0 °F 83% 29.98 in 10.0 mi North 9.2 mph - N/A   Scattered Clouds
10:53 PM 59.0 °F 54.0 °F 83% 29.99 in - NNW 5.8 mph - N/A   Unknown
11:52 PM 57.0 °F 52.0 °F 83% 29.98 in 10.0 mi Calm Calm - N/A   Partly Cloudy